Weather in Novosibirsk

Russia / Novosibirsk Oblast     55°01′48″N   82°55′13″E
temp.,
°C
wind,
m/s
gust,
m/s
humid.,
%
clouds,
%
prec.,
mm/h
press.,
hPa
HPBL,
m
6 may, thu
thu601:00+11s2265100 0.0 101234
04:00+9s336839 0.0 101131
07:00+10se23685 0.0 101058
10:00+16sse45480 0.0 1009383
13:00+21s56366 0.0 1006917
16:00+23s5734100 0.0 10041030
19:00+21ssw3846100 0.0 1004392
22:00+16s345997 0.0 100451
7 may, fri
fri701:00+15s3763100 0.0 100397
04:00+14nw61372100 0.0 1004476
07:00+12nw51170100 0.0 1008553
10:00+15nw5746100 0.0 10101142
13:00+17wnw71035100 0.0 10102260
16:00+17wnw8113299 0.0 10112561
19:00+15wnw711375 0.0 10132118
22:00+12w612445 0.0 1016453
8 may, sat
sat801:00+9wnw36570 0.0 1018120
04:00+7w36650 0.0 1020117
07:00+7wsw38630 0.0 1021201
10:00+12wsw41047100 0.0 1020570
13:00+18w8113897 0.0 10182298
16:00+19wnw8123974 0.0 10172056
19:00+19wnw5104096 0.0 10171873
22:00+15n1255100 0.0 101814
9 may, sun
sun901:00+14nnw225965 0.0 101936
04:00+10n3681100 0.0 1020109
07:00+8ne368024 0.0 1021184
10:00+12ne445377 0.0 1022578
13:00+15nne3442100 0.0 10211194
16:00+17nne453682 0.0 10201685
19:00+16ne55376 0.0 10201264
22:00+11ne3451100 0.0 102176
10 may, mon
mon1001:00+9ene3556100 0.0 1020100
04:00+7ene386194 0.0 1020153
07:00+8ne41062100 0.0 1020336
10:00+12ene6949100 0.0 1018909
13:00+15ne7839100 0.0 10161397
16:00+16ne7836100 0.0 10151627
19:00+15ne6842100 0.0 10141701
22:00+12nne51248100 0.0 1014383